Regional Weather Roundup
Issued by NWS

Home | Current Version | Previous Version | Text Only | Print | Product List | Glossary On
Versions: 1 2 3 4 5 6 7 8 9 10 11 12 13 14 15 16 17 18 19 20 21 22 23 24 25 26 27
000
ASUS44 KJAN 260810
RWRMS

MISSISSIPPI HOURLY WEATHER ROUNDUP
NATIONAL WEATHER SERVICE JACKSON MS
300 AM CDT MON JUN 26 2017

NOTE: "FAIR: INDICATES FEW OR NO CLOUDS BELOW 12,000 FEET WITH NO
SIGNIFICANT WEATHER AND/OR OBSTRUCTIONS TO VISIBILITY.

MSZ001>002-007>008-010>013-018>021-025>028-034>036-260900-
NORTHWEST MISSISSIPPI

CITY           SKY/WX    TMP DP  RH WIND       PRES   REMARKS
BATESVILLE     FAIR      60  59  96 CALM      30.18S
CLARKSDALE       N/A     64  64 100 CALM      30.17F
CLEVELAND        N/A     64  64 100 CALM      30.17S
GREENWOOD      CLEAR     63  62  97 CALM      30.17S
GREENVILLE     CLEAR     64  62  93 CALM      30.17S
OXFORD         FAIR      57  55  94 CALM      30.19F
TUNICA           N/A     63  63 100 CALM      30.18S
WINONA         FAIR      61  61 100 CALM      30.17S
$$

MSZ003>006-009-014>017-022>024-029>033-037>039-260900-
NORTHEAST MISSISSIPPI

CITY           SKY/WX    TMP DP  RH WIND       PRES   REMARKS
COLUMBUS AFB   FOG       61  61 100 CALM      30.15F VSB 1/2
CORINTH        FOG       59  57  94 CALM      30.17F VSB 1/2
GOLDN TRIANGLE CLEAR     61  55  82 CALM      30.13S
STARKVILLE     FAIR      59  59 100 CALM      30.18S FOG
TUPELO         CLEAR     63  59  87 CALM      30.17S
$$

MSZ040-058-260900-
CENTRAL MISSISSIPPI

CITY           SKY/WX    TMP DP  RH WIND       PRES   REMARKS
JACKSON INTL   CLEAR     64  62  93 CALM      30.16S
JACKSON HAWKNS CLEAR     65  62  90 CALM      30.17R
MADISON        FAIR      61  61 100 CALM      30.16S
MERIDIAN KEY   PTCLDY    64  63  96 N3        30.15F
MERIDIAN NAS   CLEAR     64  59  83 CALM      30.16F
RAYMOND        FAIR      63  63 100 CALM      30.16S FOG
VICKSBURG VKS    N/A     64  64 100 CALM      30.12F
$$

MSZ059>079-260900-
SOUTH MISSISSIPPI

CITY           SKY/WX    TMP DP  RH WIND       PRES   REMARKS
COLUMBIA       FAIR      63  61  94 CALM      30.16S
HATTIESBURG    CLEAR     65  63  93 CALM      30.13F
LAUREL           N/A     64  64 100 CALM      30.14S
MCCOMB         PTCLDY    68  56  65 CALM      30.14S
NATCHEZ        CLEAR     66  61  84 NE3       30.15S
PINE BELT      CLEAR     64  59  82 N5        30.15F
$$

MSZ080>082-260900-
COASTAL MISSISSIPPI

CITY           SKY/WX    TMP DP  RH WIND       PRES   REMARKS
BILOXI         CLEAR     72  67  83 NE7       30.09F
PASCAGOULA     CLEAR     71  66  84 NE3       30.10F
GULFPORT       CLEAR     72  67  84 N5        30.09F
$$

LAZ007>009-015>016-023>026-260900-
NORTHEAST LOUISIANA

CITY           SKY/WX    TMP DP  RH WIND       PRES   REMARKS
BASTROP        FAIR      61  61  99 CALM      30.17S
TALLULAH/VBURG CLEAR     64  63  96 CALM      30.15F FOG
VIDALIA        FAIR      67  62  84 CALM      30.13S
$$




USA.gov is the U.S. government's official web portal to all federal, state and local government web resources and services.